User: anonymous   Login
Location: Caltech
(34.1382°N, 118.1253°W)
Time: 10:17:35
(UTC-08:00)
Language:

MaSat-1 - Orbit

View from above orbital plane
View from above orbital plane
View from above satellite
View from above satellite

Ground track
Ground track

The orbit data is extracted from the following two-line orbital elements,

1 38081U 12006E   14352.29369563  .00551403  10205-3  18665-2 0  6878
2 38081 069.4340 209.1702 0144068 081.1018 038.7420 15.74988627151649
Epoch (UTC): 18 December 2014 07:02:55
Eccentricity: 0.0144068
inclination: 69.4340°
perigee height: 248 km
apogee height: 441 km
right ascension of ascending node: 209.1702°
argument of perigee: 81.1018°
revolutions per day: 15.74988627
mean anomaly at epoch: 38.7420°
orbit number at epoch: 15164

The dashed part of the orbit path shows where the satellite is in the earth's shadow,  

DLR